Current weather by "City, St" or "zip code"  
 

Current Conditions: Aurora Municipal Airport, IL

Fair


36.0 F

Last Updated on Oct 24 2020, 7:52 pm CDT
Humidity: 79%
Wind Speed: NE 6.9 mph
Barometer 30.21 in
Dewpoint: 30.0 F
Visibility: 10.00 mi
Precip: --
Heat Index: NA
Wind Chill: 30 F
Current conditions at:

Aurora Municipal Airport, IL (KARR)

Lat: 41.77132 Lon: 88.48147

Local Radar Image active severe weather and emergency alerts image image weather storm and storm spotter reports image weather observation monitoring service image
Local
Radar
Active
Alerts
Storm Reports Obs
Monitoring

Sign-up For Email & Text Message Weather Alert Notification Services



Advertise Here

Observation History for Aurora Municipal Airport, IL


Time Wind
(mph)
Vis
(mi)
Weather Precip (in) Temperature (F) Relative
Humidity
Wind
Chill
(F)
Heat
Index
(F)
Pressure
Air Dwpt altimeter
(in)
sea level
(mb)
Rmks
7:52 pm CDT NE 6.9 10.00 Fair -- 36.0 30.0 79% 30 NA 30.21 1023.8
6:52 pm CDT N 8.1 10.00 A Few Clouds -- 38.0 30.9 76% 32 NA 30.21 1023.5
5:52 pm CDT N 6.9 10.00 Partly Cloudy -- 40.0 30.9 70% 35 NA 30.21 1023.6
4:52 pm CDT NW 8.1 10.00 Overcast -- 44.0 30.0 58% 39 NA 30.20 1023.4
3:52 pm CDT NW 4.6 10.00 Overcast -- 45.0 30.0 56% 43 NA 30.20 1023.4
2:52 pm CDT NW 8.1 10.00 Fair -- 43.0 30.0 60% 38 NA 30.21 1023.6
1:52 pm CDT N 9.2 10.00 Overcast -- 44.0 30.9 60% 39 NA 30.23 1024.3
12:52 pm CDT 3.5 10.00 Fair -- 44.0 28.9 55% NA NA 30.25 1025.0
11:52 am CDT N 6.9 10.00 Partly Cloudy -- 41.0 28.9 62% 36 NA 30.28 1026.0
10:52 am CDT NE 8.1 10.00 A Few Clouds -- 41.0 30.0 65% 36 NA 30.30 1026.4
9:52 am CDT N 9.2 10.00 Fair -- 39.0 30.9 73% 33 NA 30.31 1027.0
8:52 am CDT N 4.6 10.00 Fair -- 36.0 33.1 89% 32 NA 30.31 1027.1
7:52 am CDT N 6.9 10.00 Fair -- 31.0 30.0 96% 24 NA 30.30 1026.5
6:52 am CDT N 8.1 10.00 Fair -- 30.0 28.0 92% 22 NA 30.30 1026.6
5:52 am CDT NW 4.6 10.00 Fair -- 30.0 28.9 96% 25 NA 30.31 1026.8
4:52 am CDT NW 6.9 10.00 Fair -- 30.0 28.9 96% 23 NA 30.29 1026.2
3:52 am CDT N 0.0 10.00 Fair -- 32.0 30.0 92% NA NA 30.29 1026.3
2:52 am CDT NW 6.9 10.00 Fair -- 32.0 30.0 92% 26 NA 30.28 1025.9
1:52 am CDT NW 6.9 10.00 Fair -- 33.0 30.9 92% 27 NA 30.27 1025.7
12:52 am CDT NW 4.6 10.00 Mostly Cloudy -- 35.0 33.1 93% 31 NA 30.27 1025.6
11:52 pm CDT N 5.8 10.00 Mostly Cloudy -- 39.0 34.0 82% 35 NA 30.26 1025.2
10:52 pm CDT N 10.4 10.00 Overcast -- 40.0 33.1 77% 33 NA 30.25 1024.8
9:52 pm CDT N 8.1 10.00 Overcast -- 41.0 35.1 79% 36 NA 30.24 1024.5
8:52 pm CDT N 15.0 10.00 Overcast -- 41.0 33.1 73% 33 NA 30.21 1023.4

Regional Weather Observation


Chicago / West Chicago, Dupage Airport, IL (KDPA)

Fair
37.0 F

Aurora Municipal Airport, IL (KARR)

Fair
36.0 F

Rochelle, Rochelle Municipal-Koritz Field Airport, IL (KRPJ)

Fair
35.0 F

Lewis University Airport, IL (KLOT)

Fair
38.0 F

Morris Muni-James R Washburn Field Airport, IL (KC09)

Partly Cloudy
39.0 F

Joliet Regional Airport, IL (KJOT)

Fair
41.0 F